Location: Rounton
(54.4000°N, 1.3500°W)
Time: 19:22:13
(UTC+01:00)

S-56A Canister/Altair - Pass Details

Date: 11 September 2024
Orbit: 636 x 2487 km, 38.9° (Epoch: 06 October)

Event Time Altitude Azimuth Distance (km) Brightness Sun altitude
Rises 20:40:37 0° 211° (SSW) 3,616 11.1 -10.6°
Reaches altitude 10° 20:43:39 10° 195° (SSW) 2,919 10.4 -11.0°
Maximum altitude 20:48:40 20° 150° (SSE) 2,647 9.8 -11.7°
Enters shadow 20:52:48 15° 119° (ESE) 3,317 10.1 -12.2°
Drops below altitude 10° 20:55:05 10° 108° (ESE) 3,882 - -12.5°
Sets 20:59:58 0° 95° (E) 5,241 - -13.2°
